ECMWFFLT2_850_thetae_072.txt.gz
Theta_e
334 335 335 335 335 335 335 335 335 332 333 332 320 317 325 327 330 332 332 330 329 329 328 331 333 334 334 331 326 321 318 317 317 316 316 316 317 318 319 323 329 332 332 332 332 332 333 334 333 332 331 329 328 329 327 325 325 325 327 328 327 326
334 334 334 334 335 335 335 335 334 332 333 330 319 320 329 330 330 332 332 331 329 326 326 330 332 332 330 326 321 319 319 318 317 317 316 316 315 317 318 320 323 327 328 329 331 331 333 334 333 333 333 331 330 331 329 327 326 327 328 329 329 328
333 333 333 334 335 334 335 335 334 332 333 331 321 320 326 330 331 331 332 331 329 325 324 328 328 327 324 321 320 320 319 318 318 317 316 316 315 315 317 319 320 322 323 324 327 329 332 333 333 334 334 332 332 331 330 329 329 329 329 330 329 329
334 334 334 334 334 334 335 334 333 332 333 333 326 321 323 330 333 332 332 331 329 328 326 327 327 325 322 321 321 322 321 319 318 318 318 317 316 315 316 318 318 319 320 321 323 325 329 332 332 334 334 333 332 331 330 330 329 330 330 330 330 329
334 334 334 334 334 334 335 333 333 332 333 334 330 324 323 327 331 333 332 330 329 330 328 328 327 323 321 322 323 323 321 320 320 319 319 319 317 316 316 317 317 317 318 319 320 321 325 329 331 334 334 333 332 331 331 331 330 330 330 330 330 329
334 334 334 334 333 334 334 333 333 333 333 334 331 326 323 326 330 333 332 329 329 329 330 329 326 322 322 323 323 323 321 320 320 318 319 319 318 318 320 318 317 317 318 319 319 319 321 325 329 333 334 333 332 331 331 331 330 330 331 331 330 330
334 334 333 332 333 333 333 333 333 333 334 334 333 327 323 327 330 333 333 330 328 328 329 329 325 323 323 324 324 324 322 320 319 319 320 320 319 321 322 319 319 319 319 319 320 321 322 323 327 332 334 332 331 331 331 331 331 331 331 331 331 330
333 333 332 332 332 332 332 333 333 333 334 333 333 329 323 325 329 332 333 330 329 328 328 327 325 325 324 325 325 323 323 322 321 321 321 321 322 324 322 319 320 321 321 321 321 323 324 324 327 331 333 332 331 331 330 330 330 331 331 331 331 330
332 332 331 331 331 331 332 333 334 333 334 333 332 329 323 324 328 332 332 330 330 328 326 327 326 325 325 325 326 325 324 325 326 325 324 323 325 327 324 321 322 322 323 324 324 324 325 325 326 328 330 331 331 330 329 329 329 331 331 331 331 330
332 331 331 330 330 331 333 333 333 332 332 331 328 325 324 327 330 333 331 330 330 327 326 328 327 326 326 327 327 328 328 328 329 329 329 327 326 327 325 324 325 325 326 326 327 325 324 325 325 327 328 329 330 329 328 327 329 330 330 330 330 330
332 332 331 331 331 330 332 331 330 330 329 328 326 325 327 331 333 332 330 330 329 327 327 328 328 327 327 328 328 328 329 328 328 328 328 329 328 327 326 326 327 327 328 328 328 328 327 326 325 325 327 328 329 328 328 327 328 330 330 330 330 330
333 332 333 333 332 330 330 329 329 328 327 326 325 327 330 332 332 331 329 329 329 328 328 329 328 328 328 328 327 327 327 327 327 327 327 328 328 327 326 326 326 327 328 328 329 330 329 329 327 326 326 327 328 329 329 328 328 329 329 330 330 330
334 334 334 334 332 331 330 330 329 328 326 325 326 328 331 332 331 329 329 329 329 328 328 329 328 328 328 328 327 327 328 328 327 327 327 327 327 326 326 326 326 326 326 327 329 330 329 330 329 329 328 329 329 329 329 329 328 328 329 330 330 330
336 335 335 334 332 332 333 332 330 328 326 326 326 329 331 330 329 328 329 329 329 328 329 328 328 328 329 328 328 328 328 328 327 328 328 327 327 327 327 327 327 326 325 327 328 329 329 330 330 330 329 329 329 329 328 328 328 328 329 330 331 330
336 336 336 334 333 334 334 332 330 328 327 327 327 330 330 329 329 328 328 328 328 328 328 327 327 328 328 328 328 328 328 328 328 328 328 327 327 327 327 328 328 327 326 326 327 328 329 330 329 330 329 329 328 328 328 327 327 327 329 330 330 328
336 336 336 335 334 334 334 332 331 330 329 329 329 330 330 329 327 327 327 328 329 328 326 326 326 328 328 328 327 327 327 328 328 328 328 327 328 328 328 328 328 328 326 325 326 328 329 329 329 329 329 328 328 328 327 326 326 327 329 329 328 326
336 336 336 335 335 334 334 332 331 331 330 330 330 329 330 329 326 326 327 328 328 327 326 327 328 328 329 328 327 327 327 328 329 328 327 327 327 327 326 326 326 326 326 325 324 326 329 329 328 328 328 328 327 327 326 326 325 326 327 328 327 326
336 336 336 336 335 334 333 331 331 330 330 330 329 329 329 327 325 327 328 327 326 326 327 328 329 329 328 328 327 326 326 327 328 327 326 326 326 326 325 324 324 325 326 326 325 325 326 327 327 327 327 327 327 327 326 326 326 326 327 328 328 328
336 337 336 336 334 333 331 330 330 330 330 330 328 327 327 326 327 328 327 326 325 326 327 328 329 328 327 327 326 325 326 327 327 327 327 326 326 326 325 324 324 325 325 326 325 325 326 326 326 326 326 327 327 327 327 326 326 326 327 329 329 328
336 336 336 335 334 332 331 330 330 330 329 330 328 327 327 326 327 327 326 326 326 327 328 328 328 328 326 326 327 326 326 327 327 327 327 327 327 326 326 325 324 324 324 325 325 325 326 326 325 325 326 327 328 328 327 327 326 327 327 328 328 328
336 336 335 334 333 331 331 330 330 329 329 329 328 327 326 325 326 326 326 327 328 329 328 328 327 327 327 327 327 326 327 327 327 327 327 327 327 327 326 325 324 324 324 325 325 326 327 327 326 326 327 327 328 329 328 327 327 327 327 327 328 328
335 334 334 333 332 331 330 330 329 329 328 328 327 325 325 326 327 326 327 328 328 328 327 327 327 327 328 327 327 327 327 328 328 327 327 326 326 327 327 326 325 324 324 325 325 326 326 327 327 326 326 327 328 329 328 328 328 327 327 327 327 328
335 334 333 332 331 330 330 330 330 329 328 328 326 325 327 328 327 328 328 328 327 327 326 326 327 328 327 327 327 327 328 327 327 327 327 326 326 327 327 326 326 326 325 325 325 326 326 327 327 326 326 327 328 328 328 328 328 327 327 327 327 327
335 333 332 331 331 330 330 330 330 329 328 328 326 326 327 327 327 328 327 327 326 326 326 326 326 327 327 327 327 326 327 326 327 327 327 327 327 327 326 326 327 326 327 326 325 326 326 327 327 327 327 326 326 327 326 327 327 327 327 327 326 326
334 333 331 331 331 330 330 330 329 329 328 327 327 326 326 326 328 327 326 325 325 325 325 325 325 326 327 327 326 326 326 326 327 327 327 326 327 327 326 326 327 327 327 327 326 326 326 327 327 327 327 326 326 326 325 325 326 326 326 326 326 326
333 332 331 330 331 330 329 329 329 328 327 327 327 326 325 326 327 326 325 325 324 324 324 325 326 326 326 327 326 325 326 326 326 326 325 325 325 325 325 326 327 327 327 327 327 326 326 326 327 327 326 326 325 326 325 325 325 325 325 325 325 325
331 331 331 331 330 329 329 329 328 326 326 327 327 326 326 327 327 325 325 324 324 325 325 326 326 326 326 326 325 325 325 325 324 324 324 324 324 324 324 325 326 326 326 326 326 326 326 326 326 326 327 326 325 325 325 325 324 324 325 326 324 324
332 331 332 331 329 329 329 328 326 325 326 328 326 326 327 328 327 326 325 325 325 326 325 325 325 324 324 324 323 322 321 321 321 321 322 322 322 323 323 324 325 324 325 325 326 326 326 326 326 326 326 327 326 326 326 325 324 323 324 326 325 324
333 332 332 331 329 329 329 327 325 325 327 327 327 328 328 328 327 326 325 325 325 324 323 323 321 319 319 319 318 317 317 318 318 318 319 320 321 321 322 323 324 323 323 325 326 325 325 325 325 326 326 327 326 326 326 325 324 323 323 324 325 325
333 333 331 330 328 328 328 327 326 327 327 327 328 329 329 327 326 324 323 322 322 322 320 320 318 316 316 316 316 316 317 317 317 317 317 318 320 321 322 322 323 323 322 323 325 325 324 324 324 325 326 327 326 325 325 324 324 324 323 323 325 325
333 333 331 329 329 330 328 325 324 325 325 326 328 328 328 326 324 322 321 320 320 320 319 319 318 316 317 317 317 317 317 317 317 317 317 318 320 322 322 322 323 323 323 323 324 324 323 323 324 325 326 326 325 324 324 324 324 324 323 322 323 324
332 333 331 329 330 329 325 321 321 322 324 326 326 325 325 324 322 321 320 320 320 319 320 320 319 317 318 319 319 319 319 319 318 317 318 320 321 322 322 322 322 323 323 323 323 323 323 323 323 324 325 325 324 324 324 324 324 324 324 322 322 323
332 332 330 330 330 327 322 319 319 322 326 327 324 322 322 321 321 321 320 320 320 320 321 321 319 317 319 320 320 319 319 319 318 316 317 320 321 320 320 321 323 323 324 323 323 323 323 323 323 323 324 324 324 324 324 324 324 323 323 323 322 322
331 331 330 330 330 328 324 321 321 323 326 327 325 322 319 319 320 320 320 320 320 321 321 321 320 318 318 319 318 319 318 318 317 314 315 319 319 319 320 321 323 324 323 323 322 322 322 322 322 323 323 324 324 324 325 324 323 323 323 323 322 322
331 330 330 328 328 328 325 323 322 325 327 327 327 324 319 318 317 317 318 320 321 321 321 321 319 317 317 317 317 318 318 318 314 310 313 317 318 318 319 320 322 323 323 322 321 320 320 320 321 321 322 323 324 324 324 324 324 323 323 323 323 322
331 329 329 327 328 327 325 324 324 326 328 328 328 325 321 317 316 317 318 320 321 321 319 317 314 314 315 316 317 317 316 316 312 307 310 314 315 317 319 319 320 321 321 321 319 319 319 319 319 320 322 323 323 324 324 324 324 323 323 323 322 321
330 329 329 328 327 326 325 326 326 327 329 329 328 326 321 318 318 320 320 321 321 319 316 313 310 312 315 316 317 317 315 313 309 306 307 309 311 314 316 319 320 319 319 318 317 317 317 316 316 319 321 322 323 323 323 323 323 323 323 322 321 319

ECMWFFLT2_850_thetae_075.txt.gz
Theta_e
338 339 338 337 336 336 335 334 333 334 333 321 315 317 317 319 323 326 328 328 330 331 330 331 332 333 334 334 333 329 322 318 322 327 326 321 322 328 331 331 332 331 330 330 329 328 328 329 330 328 326 325 326 327 327 328 329 329 328 326 324 322
338 339 339 337 337 337 336 334 333 335 332 319 317 323 325 328 329 330 329 329 330 330 330 332 333 334 334 332 327 322 318 316 316 320 323 320 320 324 328 331 332 332 331 331 331 331 331 330 330 330 328 327 327 328 328 328 329 330 330 328 326 325
338 338 338 337 337 337 336 335 334 335 331 322 324 330 330 331 332 331 330 330 330 329 331 333 334 334 330 326 322 319 318 317 315 315 318 320 319 320 324 329 331 332 332 332 331 331 332 332 331 331 331 330 330 329 328 329 330 330 330 329 329 327
336 335 336 337 337 337 337 337 335 335 332 328 330 331 330 331 332 332 331 330 329 328 331 332 332 330 324 321 321 320 319 318 316 316 316 318 319 319 321 325 329 331 332 332 331 331 332 333 332 332 333 332 331 330 329 329 329 330 330 330 329 328
335 335 335 335 336 335 336 337 335 334 332 328 326 326 329 331 332 332 331 329 326 326 329 330 327 324 321 322 322 320 319 319 318 317 316 316 317 319 319 322 325 328 330 330 329 329 330 332 332 333 334 333 331 330 329 329 329 329 329 329 329 328
334 335 334 334 335 335 335 335 334 333 332 326 322 324 327 330 332 332 331 329 326 325 327 327 324 322 321 323 322 321 320 319 318 318 317 315 315 317 318 320 322 323 325 325 324 324 326 330 332 333 334 333 332 330 330 330 329 329 329 329 329 328
335 334 334 334 335 335 335 335 334 333 334 330 326 324 325 329 332 333 331 329 329 327 327 325 322 322 323 323 322 321 320 319 319 319 318 317 316 316 315 318 321 321 320 321 321 321 322 326 330 333 333 333 332 330 330 330 329 329 329 329 329 328
335 334 334 334 335 336 335 335 334 334 334 331 328 325 324 329 332 333 331 330 330 329 328 325 323 323 323 324 323 322 321 320 320 320 319 319 318 317 317 319 321 319 318 319 321 321 321 323 327 332 333 333 332 331 330 330 330 329 329 330 330 330
334 334 334 334 335 336 335 335 334 334 334 332 329 324 323 327 330 333 332 330 330 329 327 326 324 324 324 324 323 323 323 322 322 321 321 321 320 320 320 321 321 320 319 319 322 323 323 323 325 331 333 332 332 331 330 330 329 329 330 331 331 330
333 333 333 333 335 335 335 336 334 335 335 333 330 325 323 324 327 331 332 330 329 327 327 325 325 324 325 324 323 324 325 325 326 324 323 322 323 323 322 322 322 324 323 320 323 325 325 325 326 329 331 331 331 330 329 329 329 330 330 331 331 330
332 333 333 333 334 335 336 336 335 335 335 333 331 328 325 324 325 330 332 330 328 326 327 326 325 325 325 325 325 326 327 327 328 328 327 325 324 325 325 325 326 327 325 322 325 326 326 327 327 328 329 330 330 329 329 328 329 330 330 330 330 330
332 332 332 332 333 334 335 335 334 335 335 332 330 327 325 327 329 331 332 329 327 326 327 327 326 326 327 328 328 329 329 328 328 328 329 328 327 326 327 328 328 328 327 326 326 327 328 327 327 328 328 329 329 329 329 328 329 330 330 330 330 330
331 331 331 331 332 333 334 334 334 335 333 330 326 325 328 331 332 332 331 329 326 326 327 328 328 328 328 329 329 329 329 328 328 327 327 328 328 328 328 328 328 328 328 328 328 329 329 328 328 328 328 329 329 329 329 328 329 329 329 330 330 330
331 330 330 330 331 332 334 333 334 333 330 327 325 327 331 332 332 331 330 329 326 327 328 329 329 329 329 329 328 329 329 328 328 327 326 327 328 327 327 327 327 327 327 327 328 329 329 329 329 329 329 329 329 329 329 328 329 328 329 330 330 329
331 330 330 331 332 334 334 333 332 330 327 325 325 329 331 331 330 330 330 328 327 328 329 329 329 330 330 328 328 329 329 329 328 327 327 327 327 327 328 327 326 326 325 325 327 329 329 329 330 330 330 329 329 329 328 328 328 328 330 330 329 328
332 332 332 333 334 335 333 331 329 327 325 325 325 329 331 329 329 329 329 329 328 329 330 329 329 330 330 329 329 329 329 328 328 328 328 327 327 328 328 327 327 326 325 325 326 328 329 329 330 330 330 329 329 328 328 328 327 328 330 330 328 328
333 334 334 335 335 334 332 329 327 326 326 326 326 329 330 328 328 328 329 329 329 329 330 328 328 329 329 329 328 328 328 328 328 328 327 327 327 327 328 327 327 327 326 325 325 327 329 329 329 329 329 329 328 327 327 327 326 328 329 329 328 329
336 335 335 336 334 333 331 329 328 328 328 328 329 330 330 328 328 328 328 329 329 330 328 327 327 328 329 329 328 327 327 327 328 327 326 326 326 327 326 325 325 325 326 325 324 326 329 329 328 328 329 328 327 327 326 326 326 327 328 328 329 328
337 336 336 335 334 333 332 330 330 330 330 330 330 330 330 328 327 327 328 328 329 329 327 327 328 329 329 328 328 326 326 327 327 326 326 325 325 326 325 323 323 323 325 325 324 325 327 328 327 327 328 327 327 326 326 326 326 327 328 328 329 327
338 336 334 334 334 334 332 331 332 331 330 330 329 330 330 327 326 327 328 328 328 327 327 328 328 329 328 327 327 326 325 326 326 326 326 326 326 326 325 324 323 324 324 325 324 324 326 327 326 327 327 327 327 327 327 326 326 327 328 329 329 327
337 335 334 335 334 334 333 332 331 330 330 329 329 329 328 326 326 327 328 327 326 326 327 328 328 328 328 326 326 326 325 325 326 326 327 327 326 326 326 325 324 324 324 325 325 325 326 326 326 327 327 328 328 328 327 327 327 328 329 329 329 328
336 335 334 334 334 334 334 332 330 329 329 328 327 327 326 326 327 327 327 326 326 327 328 328 328 328 327 327 327 327 326 326 326 327 327 327 327 326 326 325 325 323 323 325 325 325 326 327 327 327 327 328 328 328 328 328 328 328 328 328 328 328
335 334 334 334 334 334 333 331 330 328 328 328 326 326 326 325 325 326 325 325 326 328 328 328 327 327 328 328 327 327 327 327 327 328 327 327 326 326 326 326 326 325 324 325 326 326 326 327 328 327 327 328 328 328 328 328 328 328 328 328 327 327
335 335 334 334 334 334 332 331 330 328 328 328 326 325 325 325 326 326 326 327 327 328 327 327 327 327 328 327 327 328 328 327 328 328 327 327 326 326 326 327 326 326 325 325 326 326 326 326 327 327 327 327 327 327 327 327 327 327 327 327 326 327
334 335 334 334 334 333 332 330 330 328 328 328 326 325 326 326 326 327 327 327 327 327 326 326 327 327 327 327 327 328 328 327 327 328 328 328 327 327 327 327 327 326 326 326 326 326 326 326 327 327 327 327 326 327 327 326 326 326 326 327 326 325
334 335 334 334 334 333 331 330 329 328 328 328 326 325 326 325 325 327 327 326 326 326 326 326 327 327 327 326 326 327 327 327 327 327 327 327 327 327 326 326 326 327 327 328 327 327 326 327 327 327 327 326 326 326 327 326 326 326 325 327 326 324
334 334 335 334 333 332 331 330 329 327 327 327 325 325 325 325 326 327 326 325 324 325 325 325 326 326 326 326 325 326 326 326 326 326 325 325 325 325 326 326 327 327 327 327 327 327 328 327 327 327 327 326 326 325 326 325 326 325 325 326 325 324
334 334 334 334 333 332 330 329 328 328 327 326 326 325 325 325 327 326 325 324 324 324 324 324 325 326 326 326 325 325 325 325 324 324 324 324 323 324 325 325 326 326 326 326 326 327 328 327 328 327 327 327 326 326 326 325 325 325 326 325 324 325
333 334 334 333 332 331 330 329 328 327 327 327 327 326 325 326 326 325 325 324 324 324 325 324 325 325 326 325 324 324 324 323 323 322 322 322 322 323 323 324 325 325 325 325 326 326 327 327 328 328 327 327 327 327 326 325 324 325 325 324 325 325
333 333 333 332 332 330 330 328 326 325 326 327 327 326 326 327 326 325 325 324 324 325 325 324 323 323 323 322 321 321 320 321 320 320 320 321 321 321 321 322 324 324 324 325 325 326 326 326 326 327 327 327 327 327 326 325 325 325 325 324 325 325
332 332 332 332 331 330 329 326 324 325 326 325 326 326 327 328 326 326 325 324 324 324 322 321 319 318 318 318 318 318 318 318 318 318 318 318 318 319 319 320 322 323 323 323 324 325 325 324 324 326 327 327 327 327 326 326 325 325 325 324 324 324
332 332 332 330 329 329 328 326 326 326 324 323 325 326 328 328 327 326 324 322 322 320 320 319 317 315 316 317 317 316 316 316 316 316 316 316 317 318 320 321 322 323 323 323 323 324 324 324 324 325 326 327 327 326 326 326 325 324 325 324 323 323
332 331 330 328 328 329 326 326 327 324 321 323 325 325 326 327 326 324 322 320 319 318 317 316 314 314 316 316 316 316 316 316 316 316 316 317 318 319 321 321 322 324 324 324 323 323 323 323 324 324 325 325 325 324 325 325 324 324 324 324 323 323
330 329 330 327 328 328 325 324 324 321 321 325 325 324 324 325 324 322 320 319 318 317 315 315 314 315 317 317 317 318 318 317 315 315 317 318 319 319 319 320 322 323 324 323 323 322 322 322 323 323 324 325 324 324 325 325 324 324 324 323 323 323
327 327 329 328 328 327 322 320 319 320 324 325 324 323 323 323 322 321 319 319 318 316 316 317 317 317 318 318 319 319 319 317 312 312 317 319 318 317 317 319 322 323 323 322 321 321 321 321 321 322 324 324 324 324 324 324 323 324 323 323 323 322
325 327 329 329 328 324 319 319 319 321 326 326 324 322 321 321 321 320 318 317 318 318 319 320 319 318 318 319 320 320 320 317 310 310 315 317 316 316 316 318 320 321 322 321 319 320 320 319 319 320 323 323 323 324 324 324 323 324 323 323 322 321
328 328 330 330 328 324 321 321 321 323 326 327 326 323 320 320 320 319 319 319 320 320 320 321 318 317 318 320 321 320 319 315 309 308 312 314 315 315 316 317 318 320 321 319 318 319 318 316 316 319 322 322 323 323 324 324 324 323 323 323 321 318

ECMWFFLT2_850_thetae_078.txt.gz
Theta_e
338 338 338 336 336 335 334 334 334 334 326 321 322 325 329 331 331 331 330 331 332 333 333 333 333 333 333 332 332 332 331 332 332 327 324 324 325 326 327 326 326 326 327 328 329 330 329 327 327 327 327 327 326 329 332 333 333 332 331 328 322 317
339 339 338 337 337 336 335 335 335 333 328 324 322 322 326 328 329 329 330 331 332 332 333 334 334 334 334 333 333 332 330 330 331 328 325 323 324 326 327 326 326 326 327 328 329 331 331 329 328 327 329 327 329 333 332 332 334 332 332 331 326 319
339 338 338 338 339 337 335 335 334 334 331 326 323 323 326 327 328 330 331 333 333 333 334 334 333 334 334 334 333 328 323 323 324 326 328 325 322 324 328 327 326 326 327 328 329 331 332 331 329 328 329 328 330 333 330 330 333 332 333 331 327 323
339 339 338 338 339 338 336 335 335 334 330 325 326 327 328 329 331 331 331 333 333 333 335 334 333 334 333 332 329 323 318 317 318 321 324 325 322 321 326 328 328 327 328 330 331 331 332 332 331 330 330 328 330 330 328 331 332 332 333 330 327 325
340 339 339 338 338 338 337 337 336 334 329 328 331 332 332 333 333 331 331 332 332 333 336 335 333 332 329 328 327 323 320 317 316 316 319 326 326 323 325 328 329 329 330 331 332 332 332 332 332 331 331 330 330 329 328 330 330 331 331 329 328 327
340 339 339 338 338 338 338 338 337 335 332 331 333 333 334 335 333 331 331 332 331 332 335 335 332 328 325 325 325 324 323 321 322 319 319 327 329 326 327 329 329 329 331 331 332 332 331 332 331 330 331 331 331 330 329 329 328 330 330 328 328 328
340 339 339 339 338 339 339 338 337 336 334 332 331 332 333 334 333 332 331 330 330 331 332 331 328 325 325 326 326 326 326 325 327 324 323 326 327 326 327 328 328 327 328 329 330 329 329 330 329 329 331 331 332 330 329 330 330 331 331 329 329 329
339 339 340 339 339 339 338 338 337 336 333 331 330 331 331 332 332 332 331 329 328 330 330 327 324 323 324 325 326 326 324 322 324 323 323 324 323 324 325 326 325 324 325 326 327 324 326 329 328 330 332 331 332 331 330 332 332 332 332 330 329 330
338 339 339 339 338 337 337 336 336 335 333 332 330 329 330 332 332 332 331 329 328 329 327 323 322 324 324 324 323 322 321 320 321 320 320 320 319 320 321 323 323 323 323 323 324 323 326 329 328 330 333 332 333 333 332 333 333 333 334 333 331 331
338 338 338 338 337 335 335 335 336 335 334 334 331 328 329 331 332 332 331 330 330 328 325 323 323 324 324 324 323 323 322 321 321 320 320 320 319 319 320 323 324 323 321 321 324 325 326 327 328 331 333 333 334 334 333 333 333 334 334 334 333 331
337 336 336 338 336 335 335 335 335 334 335 335 331 329 330 331 332 332 331 329 330 328 325 324 324 325 325 324 323 324 324 323 324 322 321 321 321 321 322 323 324 323 321 322 324 326 328 328 330 331 332 334 334 334 334 333 333 333 333 334 333 330
335 333 334 336 335 336 336 335 335 334 335 334 331 330 330 331 332 332 332 330 329 327 324 324 324 326 325 324 325 327 327 327 327 326 324 323 322 322 323 322 322 324 324 326 327 327 328 330 331 332 333 334 334 333 334 333 332 333 333 334 332 327
335 333 333 334 335 337 335 334 335 334 335 334 332 331 330 330 330 331 332 330 328 326 324 324 325 326 326 326 328 330 330 330 329 329 328 326 325 324 325 325 324 326 328 329 330 329 328 329 330 331 333 334 334 334 334 333 332 333 334 333 331 328
337 335 334 334 336 337 334 334 335 334 334 334 332 329 327 328 330 332 332 329 327 327 326 325 326 327 328 328 330 330 330 330 329 329 329 328 328 327 328 328 328 329 330 331 331 331 330 329 329 329 330 330 332 332 332 333 333 333 333 331 330 330
339 337 335 334 336 336 333 334 335 334 333 332 329 327 328 330 332 333 331 328 326 328 328 327 327 328 329 329 330 330 329 329 328 328 328 328 329 329 329 329 330 330 330 331 331 331 331 331 330 329 329 328 329 329 330 332 332 331 331 329 329 330
338 335 333 334 335 333 332 333 335 334 332 329 326 328 331 332 333 332 331 329 326 328 331 330 329 329 329 330 329 329 330 329 329 329 327 327 327 328 328 328 328 328 328 328 329 330 330 331 330 330 330 329 329 329 330 331 330 330 330 329 329 328
338 335 333 333 332 331 333 334 334 332 330 328 326 329 333 334 333 332 333 331 327 329 333 332 331 330 331 331 329 328 331 330 329 329 328 328 328 328 328 328 327 328 328 329 331 330 330 330 330 330 330 330 329 329 330 331 330 329 330 329 327 327
338 335 333 332 330 331 334 334 332 330 329 327 326 330 333 333 334 334 333 331 329 331 334 333 333 333 332 331 329 329 329 329 329 329 329 329 329 328 329 329 328 328 328 331 333 330 328 329 330 329 330 329 329 329 329 330 330 328 329 330 327 327
336 334 332 332 331 333 334 333 331 329 329 328 327 330 333 333 333 333 333 332 331 332 334 333 332 332 331 329 328 329 328 327 328 328 328 328 328 329 329 329 328 327 328 331 331 328 328 330 330 330 330 329 328 329 328 329 330 327 327 329 327 328
336 334 333 333 334 334 333 331 330 329 330 330 329 330 333 332 331 332 334 334 333 333 334 332 330 329 328 329 328 328 327 327 328 328 327 327 327 327 328 328 326 325 326 327 327 325 327 330 330 330 330 329 329 329 328 329 329 327 327 329 327 328
336 334 333 334 335 334 333 331 331 331 331 331 330 330 331 330 329 331 333 334 334 334 333 330 330 329 328 328 328 327 327 328 328 328 327 326 326 327 327 327 325 324 326 326 326 326 327 328 329 330 330 330 329 329 329 329 328 327 328 329 329 329
336 335 334 336 335 334 334 333 332 332 332 332 331 331 330 329 329 330 332 333 333 333 332 329 329 329 328 329 328 327 328 328 327 327 327 327 327 327 327 327 325 324 327 327 327 328 328 329 329 330 331 330 330 330 330 329 328 326 327 329 330 330
336 337 336 336 335 335 334 333 332 332 332 331 331 331 332 329 328 329 331 332 331 330 329 328 328 329 329 330 329 328 329 328 327 328 329 328 327 327 327 327 326 325 327 328 327 328 328 329 330 331 330 330 330 330 329 330 329 328 328 328 329 329
336 337 336 335 335 335 334 333 332 331 332 331 330 331 331 328 326 329 332 331 328 327 328 330 331 331 331 332 330 330 331 330 330 330 330 329 328 328 327 327 329 327 326 327 327 328 328 328 330 330 330 330 330 330 329 329 329 328 329 328 328 329
336 336 336 335 335 334 334 333 332 331 331 330 330 330 328 327 326 329 330 328 327 327 329 331 332 331 332 332 330 331 332 331 332 331 330 329 329 329 329 329 331 330 328 329 328 327 327 328 329 329 329 330 329 329 330 329 329 328 329 328 328 328
335 335 335 335 335 334 334 333 331 331 331 330 330 329 328 328 327 328 328 327 328 328 329 329 329 330 331 330 329 330 331 332 332 330 329 330 329 328 330 331 332 331 329 331 330 328 328 328 330 328 328 329 329 329 330 329 328 328 329 328 327 327
335 336 336 335 334 334 334 332 330 329 331 331 330 329 328 328 327 328 328 328 329 328 327 327 327 328 328 328 327 328 328 329 329 328 327 328 327 327 330 331 332 331 330 331 330 330 329 329 330 328 327 328 328 329 329 329 329 328 328 328 327 327
336 336 336 335 333 333 333 332 329 329 331 332 331 330 328 328 328 328 328 328 327 327 327 328 327 326 326 327 327 326 325 326 327 326 325 326 325 327 330 330 330 330 331 331 330 331 330 329 330 328 327 328 327 328 328 329 329 328 328 328 327 327
336 335 334 333 331 331 333 332 330 330 332 333 332 331 329 328 329 329 328 327 327 327 328 328 327 327 327 327 327 326 326 326 326 325 325 326 325 325 327 328 328 329 329 329 329 330 329 328 329 328 327 328 328 328 328 328 328 328 328 328 327 326
335 334 333 332 331 332 333 331 330 330 331 331 331 330 328 327 328 328 327 327 328 328 328 328 327 327 327 327 326 325 325 324 324 322 323 325 323 322 324 325 326 327 327 327 328 329 329 328 328 328 327 329 329 328 329 328 328 328 327 327 327 326
333 333 333 332 332 332 331 330 330 330 330 330 330 329 328 327 327 327 328 329 329 328 327 326 326 327 326 325 324 322 321 320 320 319 319 320 320 321 322 322 324 325 325 328 330 329 328 327 328 328 328 329 329 328 328 327 327 328 327 327 327 326
331 332 332 332 333 331 330 330 329 329 330 329 329 328 328 327 327 328 329 330 328 326 324 322 324 326 324 321 320 319 319 319 319 317 317 317 319 321 320 319 322 324 324 326 328 328 328 327 328 329 329 329 328 327 328 328 327 327 327 327 327 326
330 331 331 331 332 331 331 331 329 328 330 329 328 327 326 327 328 329 329 328 325 322 320 320 321 322 320 318 319 319 320 321 320 318 317 317 318 319 319 319 321 324 325 325 324 326 328 326 326 329 330 329 327 327 328 328 327 327 327 327 326 326
331 331 330 329 330 331 331 330 328 328 327 326 328 327 325 327 328 327 326 324 321 321 321 321 321 321 318 319 321 320 320 321 319 317 317 318 317 318 321 323 323 324 325 325 323 324 326 324 324 327 329 330 329 328 328 328 327 327 326 326 326 325
330 330 329 327 329 330 329 328 327 326 323 323 326 327 325 326 328 326 323 320 320 323 324 324 324 322 319 319 321 319 318 318 316 316 317 318 319 320 321 323 323 324 324 324 323 323 323 322 322 325 327 328 329 328 328 328 327 327 326 326 326 325
329 328 328 328 329 329 328 327 326 323 321 321 324 325 324 325 326 324 319 319 322 325 325 324 323 321 318 318 318 317 317 314 312 316 318 319 320 319 319 321 323 323 322 322 322 322 322 321 321 323 324 326 328 328 327 327 327 326 326 326 325 324
330 328 329 330 329 328 327 326 325 322 320 320 321 322 324 326 325 321 320 321 322 324 323 320 318 318 317 317 316 317 316 311 309 315 318 318 318 316 316 320 322 322 320 320 320 321 322 321 320 322 323 325 327 327 326 327 327 326 326 326 325 323

ECMWFFLT2_850_thetae_084.txt.gz
Theta_e
335 335 335 334 331 332 331 329 326 326 327 329 332 334 335 336 337 337 335 334 333 333 332 330 330 328 327 327 324 322 326 327 327 329 328 326 327 328 328 329 329 328 326 326 326 326 326 325 323 324 329 332 332 334 335 333 333 332 327 320 315 313
336 335 335 334 333 333 332 331 327 325 328 329 333 334 334 335 335 335 334 332 333 334 334 332 333 332 331 332 329 325 325 326 326 326 326 326 326 328 328 329 329 328 326 325 326 326 326 326 325 324 326 326 327 333 335 334 333 331 326 322 320 317
337 336 335 334 333 333 333 332 329 327 329 330 332 332 333 334 334 334 333 332 333 333 333 333 333 333 332 333 332 330 329 328 327 325 323 323 325 328 328 327 329 327 326 326 324 323 324 325 325 324 325 325 326 332 335 334 333 332 328 326 324 320
337 336 335 334 334 333 333 333 329 328 329 329 331 331 333 334 334 334 334 332 332 333 333 333 333 333 333 333 333 333 333 331 330 328 325 321 321 326 328 327 327 326 326 326 326 327 327 325 325 325 325 327 330 333 335 334 334 332 328 327 326 323
338 337 336 335 334 334 334 333 330 328 327 328 330 332 334 334 334 334 334 332 332 332 332 332 332 332 332 333 333 333 333 331 330 329 326 324 321 322 328 329 327 325 324 325 330 334 333 330 327 326 327 329 331 333 334 334 334 332 329 327 327 326
338 337 336 335 335 334 334 334 332 330 328 330 332 333 334 334 333 333 333 332 332 333 333 332 332 333 333 333 333 333 333 331 329 327 323 324 323 320 323 327 327 326 324 324 331 335 335 333 330 330 331 330 331 333 334 333 333 331 329 327 327 327
338 336 336 335 335 334 334 335 335 333 331 332 333 334 334 334 334 333 333 333 332 332 333 332 332 333 332 333 333 333 332 330 329 326 322 324 325 323 320 323 327 326 325 328 333 334 334 333 329 330 332 331 333 333 332 333 332 330 329 328 327 327
337 336 336 335 335 335 335 336 336 336 334 332 333 334 334 334 334 333 332 332 332 330 331 332 332 332 332 333 333 332 330 329 328 325 326 330 329 325 323 327 329 328 330 333 334 334 334 333 329 331 333 333 334 332 331 330 329 329 329 329 327 326
337 336 335 335 335 335 335 336 337 336 335 333 334 334 334 334 334 333 333 332 332 330 331 331 332 332 332 332 332 331 331 330 331 327 327 333 332 329 330 333 332 330 332 333 333 333 333 333 331 332 334 333 332 332 330 327 327 327 327 328 327 327
337 335 335 336 336 336 336 336 337 337 336 334 334 334 334 334 334 333 333 332 332 330 331 332 332 332 332 332 331 332 332 331 333 332 330 333 333 332 332 332 330 329 332 332 332 332 332 333 332 331 331 331 330 331 330 327 327 326 324 326 327 327
337 336 336 336 336 337 337 337 337 336 336 335 335 334 334 334 333 333 332 331 332 332 331 331 331 331 331 332 332 333 334 332 333 333 332 333 333 332 331 330 327 329 333 333 332 332 332 332 331 330 330 331 331 331 331 328 326 325 324 325 327 328
337 337 335 333 334 337 337 336 335 336 336 336 335 335 334 333 332 333 331 331 332 332 333 332 332 330 330 332 333 333 333 332 331 331 331 331 330 330 330 328 326 327 330 331 331 330 330 329 330 331 329 330 331 331 331 329 327 326 324 325 327 329
338 337 334 333 336 337 337 336 334 336 336 335 334 333 332 331 332 333 332 330 330 332 333 333 332 331 331 332 332 332 329 327 326 325 327 326 324 325 325 324 324 324 322 324 326 325 327 329 330 331 330 330 331 332 331 329 328 327 326 326 326 328
336 335 334 335 338 338 337 335 333 335 335 334 333 331 331 331 331 331 331 330 328 331 332 331 332 332 332 333 331 330 329 327 324 322 323 322 320 322 323 323 323 323 323 326 329 328 330 331 330 331 330 331 331 330 330 329 329 328 327 326 326 327
333 332 335 337 338 338 337 334 331 334 334 334 334 332 332 332 331 331 331 330 330 331 331 331 333 333 333 333 331 331 332 331 328 325 325 323 321 322 324 323 323 326 329 332 333 332 333 333 331 330 329 329 329 328 328 329 329 328 328 327 326 327
334 333 335 336 337 338 337 335 332 333 334 334 334 333 333 332 332 332 331 331 331 331 330 331 332 331 331 332 331 332 332 331 330 328 328 328 326 326 327 328 329 331 332 333 334 333 333 332 331 330 327 328 327 326 327 329 330 329 329 328 326 326
336 336 336 336 336 337 337 335 333 333 334 334 334 333 332 333 333 332 332 332 332 331 329 329 329 329 330 331 331 331 330 330 330 329 329 330 330 330 331 331 332 333 333 333 334 333 332 332 333 330 328 330 330 328 328 329 330 329 327 326 326 326
337 336 337 336 336 336 336 336 334 333 334 334 334 334 333 333 333 332 332 332 331 329 328 329 329 329 330 331 330 329 329 330 330 329 329 330 331 332 331 330 331 331 331 332 332 332 331 332 333 330 329 331 331 331 329 328 329 329 328 326 326 327
337 336 336 336 336 335 335 337 336 335 335 334 333 334 334 333 332 332 332 331 330 329 329 330 329 330 330 330 331 329 328 329 329 329 329 329 330 330 330 329 329 329 329 329 329 330 331 331 331 330 331 331 331 331 330 328 328 329 329 328 327 327
337 337 337 336 336 336 335 336 335 335 334 333 332 334 334 332 331 332 332 332 331 330 330 331 330 330 330 329 330 329 329 329 329 329 329 329 328 329 329 328 328 328 328 327 328 330 331 330 329 329 331 332 330 330 330 329 328 328 328 328 327 328
338 337 337 336 336 336 335 333 334 335 335 334 333 334 333 331 330 331 332 332 331 330 330 330 331 330 329 329 329 329 329 329 329 328 328 328 328 329 329 327 327 327 327 327 328 331 332 330 329 330 330 330 330 329 329 329 329 328 328 328 327 327
337 337 336 336 336 334 333 333 334 336 335 334 335 334 332 330 329 330 332 331 331 331 329 329 330 329 328 327 327 328 328 328 328 327 328 328 326 328 329 327 326 326 328 329 330 332 332 330 330 330 329 329 329 329 329 329 329 328 328 328 328 327
336 336 335 335 335 334 334 335 335 335 334 334 335 333 331 331 330 330 331 332 331 330 330 329 329 328 327 325 325 327 327 328 328 328 329 329 328 328 329 329 328 328 330 331 331 332 331 330 330 330 329 330 329 329 329 328 328 329 328 328 328 328
334 333 331 330 335 335 335 336 334 334 333 333 334 333 332 331 331 331 331 332 331 330 330 329 328 328 327 326 326 327 327 328 327 329 331 330 330 330 330 330 329 330 331 331 331 330 329 329 329 329 329 329 330 330 329 329 329 329 328 328 329 328
330 329 327 329 335 335 335 334 334 333 333 332 333 334 332 332 332 331 331 332 331 330 329 328 328 329 328 328 327 327 329 329 328 329 330 329 330 331 331 330 330 331 332 332 332 330 329 329 329 329 329 329 329 329 329 329 328 328 328 328 329 328
328 328 328 330 333 333 333 334 334 333 333 333 333 333 333 332 331 331 332 331 330 330 329 328 329 330 330 329 328 328 330 331 330 330 329 328 329 330 331 331 330 331 331 332 331 329 329 329 329 329 328 327 328 328 328 328 328 329 328 328 328 328
328 328 329 330 332 332 333 335 334 333 333 333 333 333 333 332 330 331 331 330 329 329 328 328 329 329 330 331 329 329 330 330 331 329 328 328 329 330 331 331 330 329 330 331 331 329 329 329 328 329 328 327 327 327 328 328 329 328 328 328 328 328
327 327 327 329 332 333 334 334 333 333 333 333 332 332 333 332 329 330 330 329 329 330 329 329 330 330 331 332 330 329 330 330 330 329 328 329 330 331 331 329 329 329 329 331 330 329 330 330 328 328 328 328 328 328 328 329 329 328 327 328 328 328
325 323 322 324 329 333 335 334 333 333 332 332 332 332 332 331 329 330 329 328 328 329 328 330 330 331 332 331 329 329 329 329 329 329 329 329 330 330 330 329 329 329 329 330 329 328 330 329 328 328 327 328 328 328 329 329 329 329 328 328 328 328
323 321 323 320 322 331 335 334 332 332 332 332 332 331 331 330 329 330 329 328 327 325 325 327 329 330 331 331 329 329 329 329 329 329 329 330 329 329 330 329 329 329 328 329 328 327 328 329 328 328 327 328 329 328 328 329 329 329 329 328 328 327
323 323 328 327 324 329 334 333 330 331 331 331 331 330 330 330 329 329 328 328 328 326 325 326 328 330 332 331 329 329 330 330 329 329 329 329 329 329 329 328 328 329 328 328 327 326 327 327 327 329 328 328 329 328 328 328 328 328 328 329 328 328
324 324 329 332 333 331 333 334 331 330 331 331 331 329 328 329 328 327 328 328 329 329 329 329 330 331 331 331 330 330 330 330 329 329 328 327 328 328 327 327 327 328 328 327 326 325 326 326 327 328 327 327 328 328 329 328 327 327 328 328 328 328
325 325 327 332 335 333 333 334 332 331 331 332 331 329 329 328 325 325 327 328 328 329 330 331 331 331 331 330 329 328 328 328 327 327 328 327 327 327 326 326 327 328 328 326 324 325 325 325 327 327 326 326 327 327 328 329 328 328 328 328 327 327
328 327 327 331 334 334 333 334 333 332 332 332 331 329 328 327 324 324 324 325 327 329 330 331 331 331 330 328 328 327 327 327 326 325 326 326 326 326 326 327 327 329 329 326 325 325 324 324 325 325 324 325 326 327 327 328 328 328 327 328 327 326
331 329 327 331 334 334 334 334 333 332 331 330 330 328 327 326 324 324 325 325 328 330 330 330 330 329 328 327 327 327 327 327 326 324 322 322 321 322 326 327 325 328 329 327 326 326 325 324 324 324 325 326 326 326 326 326 326 326 326 327 327 327
333 331 329 331 333 333 333 333 333 332 331 329 328 327 327 326 324 325 327 328 329 330 329 329 329 327 328 328 326 326 326 324 323 322 319 320 321 322 326 326 323 325 327 327 327 326 325 325 324 324 325 326 326 325 326 326 326 326 326 326 327 326
333 333 331 331 332 333 333 332 332 332 331 329 327 327 327 326 325 326 328 329 329 329 329 329 328 327 328 327 324 325 324 320 320 321 321 323 324 323 326 325 323 326 326 325 327 326 324 325 325 326 327 326 326 326 326 326 326 326 326 326 326 326

ECMWFFLT2_850_thetae_087.txt.gz
Theta_e
328 329 329 327 326 326 329 329 328 327 325 326 329 331 332 334 336 337 338 337 336 337 333 329 327 324 321 320 321 323 325 324 323 325 326 325 324 323 323 324 324 324 323 322 320 318 324 330 334 334 334 334 333 333 333 333 333 328 320 316 315 314
329 329 328 327 326 326 329 329 326 326 326 327 331 333 335 337 337 338 337 337 336 334 331 328 326 324 321 321 320 321 326 326 324 326 326 326 326 326 325 326 326 325 325 325 324 322 325 331 333 332 333 335 334 333 334 333 332 326 322 321 319 318
330 330 329 328 327 327 327 326 324 325 327 329 331 333 335 336 337 337 336 335 334 331 331 330 328 328 326 326 324 321 323 325 326 327 325 326 327 327 327 327 327 326 325 325 326 325 326 328 328 326 329 334 334 334 335 333 331 329 325 323 323 322
332 332 331 330 329 328 326 325 324 324 327 330 332 333 333 334 335 335 334 333 331 331 332 332 332 333 331 330 329 325 324 324 326 327 324 325 326 327 328 327 327 326 325 324 325 325 326 325 325 326 330 333 332 332 334 332 332 330 327 325 324 324
334 333 332 332 331 330 328 326 325 325 328 331 332 332 333 333 332 332 332 332 331 330 332 332 333 334 333 331 330 329 329 328 329 328 325 323 324 326 328 328 327 326 325 324 325 326 328 327 327 329 332 332 330 330 331 330 330 330 328 326 324 324
335 334 333 333 332 331 330 328 327 327 329 331 332 331 330 331 331 332 332 332 331 330 332 332 332 333 333 332 331 331 332 332 331 331 328 324 322 324 327 327 327 327 325 325 327 329 331 332 331 331 332 331 330 330 330 331 331 329 327 325 324 324
335 334 333 333 333 332 330 329 328 328 328 329 331 331 330 331 331 332 332 332 331 331 331 332 332 332 332 332 333 332 332 332 331 330 327 324 323 323 326 327 326 327 327 328 331 333 334 335 334 331 330 330 329 329 330 332 332 330 327 326 326 324
336 334 334 333 333 333 330 329 328 327 327 327 329 331 332 332 332 331 331 331 331 331 331 332 332 332 332 333 333 333 333 332 331 329 326 325 325 323 324 326 327 327 329 332 334 334 334 334 333 330 330 330 330 330 329 330 330 328 327 327 327 325
336 335 334 334 334 333 331 330 329 327 327 328 329 331 332 332 332 332 332 332 332 332 332 332 332 333 333 333 333 333 332 330 327 326 328 329 328 325 325 326 327 327 330 333 334 334 333 333 332 330 330 331 331 331 329 328 328 326 326 327 327 326
337 336 335 334 334 333 333 332 332 331 331 331 331 332 333 333 333 333 333 332 333 333 332 332 332 333 333 332 333 333 330 328 326 326 330 333 331 330 330 328 326 327 330 333 334 333 333 332 332 331 330 330 330 331 330 328 327 326 326 327 327 326
337 337 335 334 335 335 334 334 334 333 332 332 333 333 333 333 333 334 333 332 332 332 331 331 331 332 333 332 332 331 330 330 330 330 330 332 333 332 332 332 331 330 332 334 333 332 332 332 331 331 329 329 330 330 330 329 326 326 325 326 326 327
337 337 336 335 336 336 335 335 335 335 334 333 333 333 333 334 334 333 333 333 332 331 331 331 331 332 332 332 331 331 332 332 332 332 331 332 333 332 332 333 333 331 332 333 333 332 332 332 331 329 328 329 330 331 331 328 325 325 325 325 327 328
337 337 336 336 336 336 335 336 336 336 335 334 334 334 334 334 334 334 333 332 331 331 331 331 332 332 331 331 332 332 333 333 332 332 332 333 333 332 332 332 331 330 331 333 333 331 331 331 331 329 329 329 330 331 331 329 327 327 326 326 328 329
337 337 337 335 335 336 336 336 336 335 335 335 335 335 334 334 333 333 333 331 331 332 332 332 332 331 331 331 332 333 334 333 332 332 333 332 331 330 330 328 326 326 329 331 329 328 329 329 329 328 329 330 330 331 332 331 329 328 327 326 327 328
337 336 336 334 334 336 336 337 337 336 335 335 335 335 335 334 333 332 331 331 331 332 332 332 332 331 331 331 332 332 332 330 328 329 329 326 325 326 326 325 324 325 329 331 329 328 328 328 328 328 329 330 331 331 331 331 329 328 327 326 326 326
337 336 335 333 335 336 337 337 336 336 336 334 334 334 333 333 332 331 331 331 332 331 331 332 332 331 331 331 330 330 329 329 327 326 326 323 321 324 324 324 327 329 331 331 329 329 329 329 329 329 329 329 329 329 329 329 329 328 327 327 326 326
337 337 335 333 336 336 336 337 337 336 335 334 333 332 332 331 332 332 331 331 331 330 330 331 331 330 330 330 329 329 329 331 330 327 327 325 323 324 324 325 329 332 331 329 329 329 329 329 328 328 328 326 326 326 328 329 329 329 329 328 326 326
337 337 336 334 337 337 336 336 336 336 335 334 333 332 332 332 332 331 331 331 330 330 330 330 330 328 330 330 330 330 330 331 330 328 328 328 326 325 326 328 330 333 332 329 329 330 330 329 328 327 326 326 326 326 329 330 329 330 330 328 326 326
337 338 336 334 336 337 335 335 336 336 335 334 334 333 333 332 331 330 330 330 330 329 329 329 329 328 329 329 329 330 330 330 330 329 329 329 329 328 329 330 331 334 333 329 328 330 330 329 329 328 327 329 330 329 329 329 329 330 329 327 326 326
337 336 335 334 333 333 334 335 336 336 335 334 333 333 332 331 331 331 330 330 330 330 330 329 329 328 328 329 330 331 330 329 329 329 328 328 330 330 330 330 330 332 332 330 329 330 330 330 330 330 329 330 331 330 329 329 329 329 329 328 327 327
334 331 331 330 328 327 330 334 334 334 334 333 333 333 333 332 332 332 332 331 330 331 330 329 328 329 329 329 330 331 329 328 328 328 328 328 329 329 329 329 329 330 330 330 330 330 329 330 331 330 329 330 330 329 329 329 329 329 329 329 328 327
331 329 329 329 328 328 329 333 332 329 330 331 332 333 333 333 332 332 332 331 331 330 329 329 330 330 329 330 330 330 329 329 328 328 328 329 329 328 328 329 329 329 329 328 328 329 330 331 330 330 328 329 329 328 329 329 329 329 329 329 328 328
329 328 329 330 329 330 331 331 330 329 329 330 331 333 333 333 332 332 331 331 331 330 329 329 330 330 330 329 329 329 328 328 329 328 328 328 328 328 329 329 328 329 329 328 329 331 332 330 330 329 328 328 328 328 329 329 329 329 329 328 328 328
330 327 328 327 326 332 333 330 331 331 331 331 332 333 333 332 332 331 332 332 331 330 329 330 330 330 329 328 328 328 328 328 328 328 327 327 327 328 329 329 328 328 328 329 330 331 331 331 330 329 328 328 329 328 329 329 329 329 328 328 328 328
328 327 328 327 327 333 334 332 333 332 331 332 333 332 332 332 331 331 332 331 331 331 330 329 329 329 328 326 326 327 327 328 328 327 328 328 328 328 329 329 329 329 328 328 329 330 330 330 330 329 328 329 329 329 329 328 328 328 328 328 328 328
327 327 330 330 331 335 334 333 333 332 331 332 333 332 331 331 330 331 331 330 331 330 329 328 328 328 328 326 325 326 327 328 328 328 328 329 328 328 328 328 329 330 328 328 329 329 329 329 330 329 328 328 329 329 328 328 328 329 328 328 328 328
327 328 331 333 334 334 334 334 333 332 331 331 331 332 331 331 331 331 331 331 330 330 329 328 328 328 328 328 327 327 328 329 329 329 328 327 327 328 328 328 330 331 330 329 330 329 328 328 329 329 328 327 327 328 327 327 327 328 328 328 328 328
326 327 331 333 334 334 333 332 333 333 332 330 330 332 332 331 331 330 331 331 330 330 329 327 327 328 329 329 329 328 328 329 329 329 328 326 327 328 328 328 329 330 331 331 330 329 328 327 327 329 328 327 327 327 327 327 326 326 327 328 328 328
326 327 330 333 334 335 334 333 334 333 332 331 331 332 332 332 331 330 330 331 330 329 327 327 329 329 329 330 329 328 328 329 330 329 328 328 328 328 328 329 329 329 330 331 330 329 328 328 327 328 327 326 327 328 328 328 327 326 326 327 327 328
328 327 329 332 334 336 336 335 334 333 331 331 331 332 332 332 331 330 330 330 328 328 327 328 329 329 330 330 328 327 327 328 330 329 329 329 329 330 330 330 330 329 330 330 329 328 328 328 328 328 327 327 327 328 328 328 327 327 326 326 326 327
329 329 330 332 334 336 336 334 333 333 332 331 332 332 331 332 331 330 330 329 328 329 328 328 329 330 330 329 326 327 327 328 329 329 329 329 329 329 329 329 329 329 329 330 329 328 328 328 328 328 327 327 327 327 328 328 328 328 326 326 326 327
331 331 332 332 333 335 335 334 333 333 332 332 332 331 331 331 330 330 330 328 328 329 328 329 329 328 329 328 326 327 326 327 329 329 329 329 329 328 329 328 329 329 328 329 328 327 327 328 328 328 328 328 328 327 328 328 328 328 327 327 326 326
332 332 333 332 333 334 335 335 334 333 332 332 331 330 330 331 330 330 329 328 328 328 327 327 328 327 328 328 327 327 327 328 329 328 327 328 328 327 327 326 327 327 327 328 328 327 327 327 327 328 328 328 328 328 328 328 328 328 328 327 326 326
332 331 332 332 333 334 335 334 334 333 332 332 331 330 330 330 329 329 328 328 328 327 327 327 328 329 329 329 328 328 329 328 328 327 326 327 327 326 326 326 326 326 326 326 326 326 326 326 326 328 328 328 328 328 328 327 327 328 328 327 327 326
332 331 332 332 332 333 334 334 333 332 332 332 331 330 330 329 328 327 328 328 328 329 329 329 329 330 329 329 328 328 327 327 327 327 327 327 327 325 325 326 327 327 326 325 324 324 325 325 326 327 326 327 327 327 328 327 327 328 328 327 327 326
332 332 332 331 331 332 333 333 333 332 332 332 331 330 329 328 326 326 327 327 329 331 330 329 330 330 329 328 327 326 325 325 325 326 326 326 326 325 324 324 325 327 327 325 325 324 324 324 325 325 325 326 327 327 327 327 327 328 327 327 327 326
332 332 331 330 330 332 333 333 333 331 330 331 331 330 329 327 325 325 326 327 330 331 330 329 329 328 327 326 326 325 324 322 321 321 320 322 325 326 325 324 324 326 326 326 326 324 324 324 324 324 326 326 327 327 327 326 327 327 327 327 326 326

ECMWFFLT2_850_thetae_093.txt.gz
Theta_e
337 337 338 339 340 341 341 341 342 342 341 340 338 337 336 336 334 331 332 334 334 334 334 332 327 321 317 316 315 315 314 313 315 317 316 313 312 309 311 324 331 331 333 333 331 330 329 330 330 330 331 330 328 328 326 325 324 322 321 321 320 319
338 337 337 338 340 341 341 341 341 340 340 339 338 337 337 336 334 332 333 334 333 333 335 334 333 327 320 317 316 317 317 315 316 318 318 314 314 311 310 322 330 331 333 333 332 332 329 328 330 332 331 328 327 328 326 326 325 324 324 322 321 321
336 335 335 336 336 336 337 337 336 336 338 339 338 337 337 336 334 333 334 334 335 333 336 336 332 327 323 321 318 317 318 317 318 319 319 316 315 313 310 319 330 332 332 333 331 332 329 328 331 331 328 326 327 327 326 326 326 326 325 323 322 321
333 332 331 331 329 328 329 330 329 332 337 337 336 336 336 335 334 334 335 336 337 335 335 334 330 327 324 323 321 319 317 317 320 321 321 318 316 315 312 316 328 332 332 332 331 331 330 330 330 326 324 325 326 326 326 327 328 327 326 324 323 322
332 331 328 327 326 325 325 325 326 331 336 335 335 336 335 334 334 334 336 337 337 335 333 331 330 329 323 321 322 320 319 317 320 322 322 321 318 317 315 314 324 331 331 332 332 332 331 329 326 321 323 326 326 328 328 329 330 329 326 325 324 323
331 329 327 327 326 325 325 324 327 331 334 334 335 335 334 334 335 336 338 337 337 335 332 329 328 325 321 321 321 320 320 319 321 323 323 323 321 320 319 315 319 328 331 332 332 331 329 327 323 322 325 327 328 330 330 331 332 329 326 326 324 324
331 329 328 327 326 326 326 325 327 330 333 335 335 334 333 333 335 337 338 337 336 334 330 328 328 325 324 325 322 321 321 321 323 325 325 324 323 323 323 319 317 323 331 333 332 330 327 324 324 326 328 329 330 330 330 331 331 329 327 326 325 324
331 330 329 328 327 326 327 328 329 331 333 335 335 333 332 332 335 337 337 336 335 332 330 329 330 330 329 329 327 324 323 323 324 325 326 326 325 325 325 323 320 324 331 332 330 328 326 327 327 329 330 329 329 330 331 330 330 329 327 327 326 325
330 330 330 328 327 327 328 329 330 332 333 334 334 332 332 333 335 337 336 335 334 332 331 331 332 332 331 331 330 328 326 326 326 325 325 326 326 326 326 325 324 327 331 330 328 327 328 331 330 329 330 330 330 331 331 330 329 328 327 327 326 325
330 330 330 329 328 328 328 329 330 331 331 331 332 332 333 335 335 336 335 333 333 333 332 332 332 332 332 331 331 331 330 329 329 327 325 325 326 327 327 326 327 328 329 328 327 328 331 332 330 329 329 331 330 330 331 331 329 328 327 326 325 325
330 330 330 329 328 328 328 329 329 329 329 329 331 332 334 335 335 336 335 332 333 333 333 333 332 332 332 332 332 332 332 331 329 327 325 323 325 327 328 328 329 329 329 329 329 330 332 332 331 330 330 331 331 330 331 331 329 328 327 326 326 326
331 330 330 330 329 328 329 330 328 328 329 330 331 330 331 333 335 335 334 332 332 332 333 333 332 333 332 332 333 332 332 331 328 326 325 323 323 327 328 329 331 331 331 331 331 331 332 332 331 331 331 331 330 330 330 330 329 328 326 326 327 327
332 332 332 332 331 329 330 331 329 329 330 331 330 328 328 332 334 334 333 333 332 332 333 333 333 333 332 333 333 332 332 330 327 325 325 324 323 326 328 330 330 331 332 332 332 332 332 332 331 331 331 330 330 330 330 330 329 327 327 327 327 327
333 334 333 333 332 331 332 331 331 331 331 330 328 328 329 331 332 332 332 333 333 333 333 332 333 333 333 333 332 332 332 329 325 325 326 326 323 325 329 330 329 330 331 332 332 332 332 332 331 331 330 329 329 330 331 330 329 328 328 328 327 326
335 335 334 334 333 332 332 331 331 332 331 329 328 330 331 331 330 330 331 331 331 333 333 333 333 333 333 333 332 332 331 328 325 325 328 328 326 327 329 329 329 329 330 331 331 331 331 331 331 330 329 329 329 330 331 330 329 329 328 328 327 326
336 336 335 334 334 333 332 332 332 332 331 330 331 331 330 331 331 331 331 330 330 332 333 332 332 332 333 332 332 332 330 329 327 326 329 331 331 330 329 329 329 329 329 329 331 331 331 331 331 330 329 329 329 330 330 330 330 329 328 328 327 326
338 337 336 335 334 333 333 332 332 331 331 331 332 332 331 331 332 331 332 332 331 331 332 332 332 332 332 332 332 331 330 330 329 329 330 331 332 332 331 331 331 330 328 328 330 332 331 330 330 330 330 329 329 330 330 330 330 329 328 328 327 326
338 338 337 336 335 334 333 332 330 331 331 331 331 331 330 331 332 332 333 333 332 332 332 332 332 332 331 332 331 330 331 331 331 331 331 332 332 331 330 331 332 331 329 328 330 331 330 329 329 329 329 329 330 330 330 330 329 329 328 328 327 327
337 338 337 337 336 335 334 331 328 330 332 332 330 328 327 329 332 333 333 334 333 332 332 332 332 332 331 331 331 331 332 332 330 329 331 332 331 329 328 330 330 329 329 330 330 329 328 328 328 329 328 329 329 328 328 329 329 329 329 328 328 327
335 335 336 337 337 335 334 332 330 330 330 331 331 330 329 330 331 333 334 333 333 332 332 332 332 332 331 331 331 332 332 330 328 326 328 329 327 325 326 327 327 327 327 329 330 329 328 328 329 329 328 328 327 326 327 329 329 329 329 329 329 328
333 334 335 336 336 335 333 331 330 329 328 329 330 331 332 332 332 332 333 333 333 332 333 333 332 332 332 331 332 332 331 329 328 327 325 324 322 323 324 324 325 326 326 328 329 329 329 329 329 329 328 327 327 327 328 329 330 329 329 329 328 328
332 333 335 335 334 334 333 331 327 327 328 329 330 332 333 333 332 332 333 333 333 333 333 333 332 332 332 331 331 331 330 330 330 329 327 323 322 323 324 324 325 327 327 328 329 328 329 330 330 329 328 327 328 329 328 329 329 329 329 328 328 328
332 334 335 334 333 333 333 331 327 326 327 329 331 333 334 333 332 332 333 333 333 333 333 332 332 332 332 331 331 331 330 330 330 330 328 326 324 324 324 325 326 328 329 329 329 329 330 330 329 329 328 328 329 329 329 329 328 328 329 328 328 328
333 335 336 335 334 333 333 331 329 327 326 328 331 333 334 333 333 333 333 333 333 332 332 331 331 330 331 331 331 331 330 330 329 329 329 328 326 326 326 326 326 328 330 329 329 329 330 330 329 329 329 328 328 327 328 328 328 328 328 328 328 328
334 336 337 335 335 335 332 330 329 329 328 330 332 334 334 334 334 334 333 333 332 332 332 331 331 330 330 331 331 331 331 330 329 328 329 329 328 328 328 328 328 328 329 329 328 329 330 329 329 329 329 328 327 326 326 326 327 328 327 327 328 328
333 335 335 334 334 335 332 327 326 328 329 331 333 334 333 333 333 334 333 333 333 332 332 331 331 330 330 330 330 330 331 330 329 328 328 328 328 328 329 329 328 328 328 328 328 327 328 327 328 329 329 328 326 326 326 325 326 328 327 327 327 327
330 332 334 332 332 333 332 328 325 326 327 329 332 333 333 333 333 333 333 333 333 332 332 332 331 330 330 330 330 330 330 330 329 329 328 328 328 328 328 328 328 327 327 327 327 327 326 326 327 329 329 329 327 326 327 326 326 327 327 327 326 326
328 331 333 332 331 332 332 329 326 327 327 328 330 332 333 334 333 333 332 332 333 333 332 331 330 330 330 330 330 330 329 329 329 329 328 328 327 327 327 327 327 328 328 327 327 327 327 327 327 328 328 328 327 327 327 327 326 326 326 327 327 327
328 330 332 332 332 331 330 328 328 328 329 329 330 332 333 333 332 332 331 331 332 332 331 330 330 330 330 330 330 329 329 329 328 328 328 328 328 328 327 327 327 328 328 327 327 328 328 329 328 327 327 328 327 327 327 327 327 326 325 326 326 327
329 329 331 332 332 332 331 329 328 329 330 332 332 332 332 332 332 332 332 332 332 332 331 329 330 330 330 329 329 329 328 328 328 328 328 328 328 328 328 327 327 328 328 327 328 328 329 329 329 328 328 328 327 327 327 327 327 326 326 325 325 326
328 328 330 332 333 333 331 328 327 328 331 333 332 331 331 331 331 331 331 331 332 331 330 329 329 330 330 329 329 328 326 326 327 328 328 328 328 328 327 327 328 328 328 328 329 329 329 328 328 328 328 328 327 327 326 326 326 326 326 325 325 325
328 328 329 331 333 332 330 328 328 329 331 332 332 331 331 331 331 331 330 331 331 331 330 330 330 329 329 328 328 327 325 325 327 328 328 328 328 328 327 328 329 328 328 329 329 329 329 328 328 328 328 327 328 327 326 325 326 326 326 326 324 325
329 327 329 332 333 331 329 329 330 331 332 332 331 331 330 330 331 331 330 329 330 331 330 329 329 329 328 327 327 327 327 326 326 327 328 328 327 328 328 329 329 329 328 328 328 329 329 327 327 327 327 327 327 327 325 326 326 326 326 326 325 325
331 329 330 332 332 329 329 331 332 332 333 333 332 331 330 330 331 331 330 329 329 330 329 328 328 327 327 327 327 328 328 327 327 328 329 327 327 328 328 329 329 329 328 327 327 328 328 327 327 327 327 327 327 326 326 326 327 327 327 326 325 325
332 331 331 331 330 329 329 332 332 331 332 333 333 332 331 331 331 330 329 329 329 329 329 329 327 326 327 327 328 329 328 328 328 329 329 327 327 328 329 329 329 328 328 327 327 327 327 327 327 327 328 328 327 326 326 326 327 327 327 327 326 326
332 332 331 330 329 329 329 330 330 330 331 332 333 333 332 330 331 330 329 328 328 329 329 328 328 327 328 328 329 329 328 328 329 328 328 327 327 327 328 328 328 327 328 327 327 327 326 326 327 327 328 328 327 327 327 326 327 327 327 327 327 326
331 332 332 329 327 328 328 328 329 329 330 331 331 332 331 330 330 331 330 328 328 328 328 328 327 328 328 329 330 328 327 327 328 327 328 328 327 326 327 327 326 326 326 326 326 327 326 326 327 327 327 327 327 327 327 327 327 327 327 327 327 327

ECMWFFLT2_850_thetae_096.txt.gz
Theta_e
335 335 337 336 337 339 340 340 339 339 338 338 337 334 334 335 334 333 333 335 334 333 329 323 318 315 314 315 313 314 316 314 311 311 313 316 321 325 326 324 320 321 323 326 326 326 326 325 326 323 321 326 326 324 324 324 323 322 321 320 319 319
334 335 336 336 337 338 339 339 340 340 340 340 337 334 336 336 335 335 335 336 334 333 332 329 325 320 316 317 317 313 315 316 314 310 310 312 317 324 328 326 321 322 324 325 326 326 326 325 326 322 320 326 327 325 324 325 325 323 322 321 320 320
332 334 335 336 337 337 339 339 340 340 341 340 337 335 337 336 334 333 334 335 334 332 332 330 330 327 318 318 320 317 316 318 318 313 310 310 312 321 329 327 324 324 325 325 326 327 326 327 326 321 320 324 326 324 325 326 326 325 324 322 321 321
331 333 334 335 335 336 338 338 339 339 340 340 338 337 337 336 335 333 333 334 334 333 334 334 334 331 324 320 322 320 318 319 320 317 312 310 310 319 328 329 326 325 326 326 327 327 326 328 325 320 321 324 325 325 325 328 327 326 324 323 322 321
331 332 332 333 334 334 335 336 337 337 339 339 338 337 336 336 336 334 333 335 336 336 337 338 335 333 330 326 323 320 318 319 321 321 316 312 310 317 327 330 329 327 327 328 328 327 327 328 324 319 322 324 326 327 327 329 329 327 325 324 323 322
331 332 331 331 331 331 331 331 334 336 337 337 337 337 336 336 336 334 335 335 336 337 337 337 334 332 331 327 326 323 320 321 323 323 319 315 311 316 326 330 330 329 328 329 330 328 328 327 322 321 324 326 328 328 329 330 328 326 325 325 324 323
331 332 331 330 329 329 328 328 332 335 336 336 336 336 336 335 335 334 334 335 336 337 336 334 332 331 329 326 327 326 323 323 324 324 321 319 315 314 324 330 330 331 330 330 329 328 329 326 321 323 327 328 328 329 330 330 328 326 325 325 324 324
332 333 331 330 329 328 328 327 329 332 334 335 335 336 335 335 334 333 333 335 335 335 335 333 330 328 326 325 326 327 326 325 326 326 323 322 319 315 320 328 331 332 331 330 329 328 328 325 322 326 329 329 329 330 330 330 328 327 326 326 325 324
332 332 331 330 330 329 328 327 326 330 333 334 335 334 334 334 334 334 335 336 335 335 335 332 329 328 327 327 326 326 327 327 327 327 325 324 322 318 317 325 332 331 331 331 329 329 327 324 325 328 329 330 330 330 331 330 328 327 326 325 325 324
332 332 331 331 330 330 330 328 326 329 332 333 334 333 332 333 333 333 334 336 335 334 334 331 330 332 331 329 327 326 327 328 328 327 326 325 325 322 317 323 331 332 331 331 330 330 326 324 327 329 329 330 331 331 331 330 329 327 326 325 325 325
331 332 331 331 330 329 329 329 327 329 332 333 334 331 329 332 332 332 333 334 335 334 333 331 332 333 332 332 330 328 327 327 328 327 326 326 326 326 321 321 328 332 331 330 331 329 326 326 329 328 328 330 331 331 331 330 329 327 326 326 326 326
331 331 331 331 330 328 328 329 329 329 331 333 332 329 329 330 331 332 332 332 333 333 331 330 332 332 331 332 332 331 330 329 329 327 325 325 327 328 325 321 325 331 331 330 330 328 327 330 330 329 329 331 331 331 331 330 329 327 326 327 327 326
330 331 330 330 330 328 328 329 329 328 329 331 329 328 328 329 329 331 331 331 332 332 331 330 331 332 331 332 332 332 331 330 330 327 325 325 326 328 327 325 326 329 331 330 330 329 329 331 331 330 331 331 331 330 330 330 329 327 327 328 327 326
330 331 330 330 330 329 329 329 329 329 328 329 328 327 328 329 329 328 329 330 330 331 331 331 331 331 332 332 333 333 332 332 329 327 325 324 325 327 328 328 327 328 329 329 330 330 330 331 331 331 331 331 330 330 330 330 329 328 328 328 327 326
329 330 331 330 330 329 330 330 328 328 329 328 328 329 328 328 329 328 328 329 330 331 331 331 331 331 331 332 332 333 333 332 328 326 326 325 324 326 329 329 328 329 329 330 331 330 330 331 331 331 331 330 329 330 330 330 329 328 329 328 327 325
330 330 331 331 331 330 330 331 329 329 330 329 329 330 328 327 328 329 328 328 329 330 331 332 331 331 331 331 332 333 333 331 328 327 327 326 324 325 329 330 330 330 330 330 331 330 331 332 332 331 330 329 329 329 330 330 330 329 328 328 326 325
333 333 333 333 333 332 332 331 331 330 330 330 330 330 328 327 330 330 329 328 329 331 331 332 332 331 331 330 330 332 332 330 328 328 328 327 325 325 329 330 330 330 330 330 330 330 331 331 331 331 329 329 329 329 329 330 330 329 328 328 327 326
336 336 336 336 334 334 333 332 331 331 330 331 331 330 330 330 331 331 330 330 331 333 333 333 332 332 331 330 330 330 332 330 328 327 329 329 327 327 329 330 329 329 329 329 329 330 331 331 330 330 329 329 329 329 330 330 330 329 328 328 327 326
336 337 338 337 336 335 334 332 332 331 331 332 331 331 331 331 332 331 331 332 333 333 333 333 332 332 331 330 330 331 332 331 329 328 329 331 330 329 330 330 330 329 328 330 330 331 331 330 330 329 329 329 329 330 330 330 329 328 328 328 328 327
335 337 338 338 338 336 334 333 332 332 332 333 332 331 331 332 332 332 332 332 332 332 332 333 332 331 331 330 330 331 331 331 331 329 329 331 331 331 331 331 330 330 330 331 330 331 330 330 330 329 329 329 330 330 330 329 329 328 328 329 328 328
334 336 337 338 338 336 335 333 332 332 332 332 332 332 332 332 333 332 331 331 331 332 333 333 331 330 330 330 330 331 332 332 332 329 328 330 331 331 331 331 331 331 332 331 330 330 330 329 329 329 329 329 330 330 329 329 329 329 328 329 329 328
331 333 335 335 336 336 334 332 333 333 332 331 331 333 332 333 334 332 330 331 332 332 332 332 331 330 329 329 331 332 332 332 331 328 327 328 329 330 330 330 330 331 330 330 329 329 329 329 329 329 328 328 328 328 328 329 329 329 328 329 329 328
330 332 333 334 335 335 333 332 333 334 333 332 332 333 333 334 334 331 329 330 331 332 332 331 330 329 328 329 331 332 332 331 330 327 326 326 326 327 327 328 329 329 328 328 329 329 329 329 329 329 328 327 327 327 327 327 328 328 329 329 328 328
332 332 333 334 334 334 333 333 334 334 334 333 332 331 333 335 334 331 329 330 332 332 332 332 332 330 330 330 331 332 332 331 329 328 328 327 324 323 325 327 327 327 326 327 328 329 329 329 329 329 328 327 327 326 327 327 326 327 328 329 328 328
334 335 334 334 334 333 332 333 334 334 334 334 332 329 330 333 333 330 330 331 333 332 332 332 332 332 331 331 331 331 332 331 330 330 330 329 326 322 324 326 326 325 325 325 327 329 329 329 330 330 328 328 327 326 326 327 326 326 327 327 328 328
332 334 334 334 335 334 332 331 332 333 334 334 333 329 328 330 331 330 330 331 332 332 331 331 331 331 331 330 331 331 331 331 330 330 330 330 327 324 324 325 325 325 325 326 329 330 329 329 330 330 328 328 327 327 326 326 326 326 326 326 327 327
330 331 332 334 335 334 332 330 330 331 332 333 332 329 327 329 331 331 331 331 332 331 332 332 331 330 330 330 331 331 331 331 331 330 330 329 328 327 326 326 326 326 326 327 329 330 330 329 329 329 328 328 328 327 326 326 325 326 326 326 326 326
329 329 331 332 334 335 334 332 330 329 330 330 328 326 326 328 330 331 331 332 332 331 332 332 331 330 330 330 330 330 330 330 330 330 329 329 329 328 329 328 329 329 328 329 329 329 329 329 328 327 327 328 329 328 326 326 326 325 325 326 326 326
329 328 329 331 332 334 335 333 331 330 329 329 327 326 326 328 330 331 332 332 332 331 331 332 331 330 330 330 330 330 330 330 330 329 328 329 328 328 328 329 329 329 329 329 329 328 328 328 327 327 327 328 329 328 326 327 327 326 325 325 326 325
331 329 328 330 330 332 333 334 333 331 330 330 329 328 328 329 330 332 332 331 331 331 331 331 331 330 330 330 330 330 329 330 330 329 328 328 328 328 328 328 328 328 328 328 328 328 328 328 328 328 328 328 328 328 327 326 327 326 325 325 325 324
332 330 330 330 329 330 331 332 332 330 330 329 329 329 329 330 331 332 331 330 330 330 330 331 331 330 330 330 330 330 329 330 329 329 328 328 328 328 327 327 328 328 328 328 328 328 327 328 329 329 329 329 328 328 327 327 326 326 326 325 325 324
332 331 330 330 330 329 330 331 331 330 330 329 328 328 329 330 332 332 331 330 330 330 330 330 331 330 330 330 330 329 329 329 329 329 328 328 327 327 327 327 328 327 328 328 328 328 327 328 328 329 329 329 328 328 327 327 326 326 326 326 325 324
332 331 331 330 330 329 328 330 331 331 330 328 327 327 328 331 332 332 331 330 330 329 329 330 330 330 329 329 329 329 329 328 328 328 328 328 327 327 327 327 327 327 328 328 328 328 328 329 328 328 328 328 328 328 327 327 326 326 326 326 326 324
330 330 331 331 331 330 328 329 331 331 329 327 327 328 329 331 332 331 331 331 330 329 329 329 329 330 329 329 328 328 328 327 326 326 327 328 328 328 328 327 327 327 328 328 328 328 329 329 328 327 327 327 327 328 327 326 326 326 327 326 326 325
328 328 330 330 330 330 329 329 331 332 330 328 328 329 331 333 332 332 331 331 331 330 329 329 329 329 329 329 328 328 327 327 326 326 327 328 329 328 328 327 328 328 328 328 329 328 329 329 329 327 327 327 327 327 327 326 326 327 327 327 326 326
327 327 328 328 328 329 330 329 331 332 331 330 330 331 332 333 333 333 332 331 331 330 330 329 329 329 329 329 328 327 327 328 327 327 328 329 329 328 328 328 328 328 328 329 328 328 328 329 328 327 327 327 327 327 326 326 327 327 327 328 327 327
327 327 328 328 328 330 330 329 329 330 330 330 331 332 332 333 333 333 333 332 331 331 330 330 330 329 329 327 327 327 328 328 328 328 328 329 329 328 328 328 328 328 328 328 328 328 328 328 328 327 327 327 327 326 326 326 327 327 327 328 327 327

ECMWFFLT2_850_thetae_102.txt.gz
Theta_e
340 339 338 338 337 335 330 325 321 320 322 326 328 329 330 330 328 324 319 317 314 319 323 315 315 317 316 319 318 318 319 320 319 320 324 322 319 321 324 327 327 328 328 325 323 324 325 324 323 323 323 322 322 322 322 323 325 326 324 321 319 318
341 340 339 339 339 337 333 329 326 325 329 333 334 333 334 333 330 329 324 320 318 327 329 321 324 322 316 319 318 320 321 320 318 318 324 325 323 322 322 325 327 328 328 326 323 322 323 323 322 322 322 322 323 324 322 322 326 328 326 322 320 321
343 342 341 340 340 340 337 333 332 332 332 335 338 336 337 336 332 332 328 327 327 330 328 325 331 326 320 320 315 318 322 322 319 315 321 325 326 324 323 324 326 328 327 327 325 321 322 322 322 322 322 324 326 325 323 324 327 329 327 321 321 322
343 341 341 340 340 340 339 338 338 338 337 338 339 338 339 338 336 336 334 335 336 334 332 331 333 328 322 322 316 315 318 322 322 316 316 322 326 325 324 324 325 328 327 328 330 329 328 325 322 323 324 327 328 325 325 328 329 329 327 322 322 322
341 340 341 340 339 340 340 341 340 340 341 341 340 340 340 340 339 339 338 340 340 336 336 335 335 330 325 323 320 317 314 317 321 318 314 318 325 325 325 327 327 328 328 331 334 333 331 326 323 326 327 328 327 326 328 329 330 330 329 325 322 323
341 341 341 340 341 341 341 341 341 341 342 342 341 341 341 342 340 340 340 341 340 338 336 336 336 335 332 328 325 323 320 316 316 318 315 314 322 325 327 329 329 329 331 333 333 330 327 325 328 329 328 328 327 328 330 329 329 331 331 328 323 324
342 341 340 340 340 340 340 341 341 341 342 342 341 341 341 342 341 340 340 339 339 339 338 337 337 336 336 334 330 328 327 321 315 315 314 312 318 324 329 332 331 332 334 334 333 329 324 324 330 331 329 329 328 328 330 329 330 331 331 330 325 323
341 340 340 340 340 340 341 341 341 341 341 342 341 341 341 340 341 340 338 337 338 339 339 338 338 337 336 335 333 332 330 327 322 318 314 311 315 321 328 332 331 333 333 333 333 330 327 326 329 331 330 329 329 329 329 329 331 331 331 331 327 324
341 340 339 340 340 341 342 341 340 341 341 341 340 340 340 339 340 339 338 337 337 338 339 339 339 338 337 334 334 333 332 331 329 326 319 311 313 317 325 330 330 332 333 334 333 331 329 326 328 331 331 330 330 330 328 328 330 331 331 331 329 324
341 341 340 340 341 342 341 340 339 340 340 340 340 340 339 339 338 339 339 338 337 337 337 338 338 338 336 334 333 334 333 332 331 328 322 316 313 312 322 328 328 331 332 333 333 331 329 326 329 332 332 331 330 330 329 328 330 331 331 331 330 326
341 340 340 341 341 340 340 339 339 340 339 338 338 337 337 337 336 337 337 336 337 336 334 336 337 336 335 333 333 333 332 332 332 330 325 321 316 310 318 324 324 329 332 333 334 331 329 329 330 332 332 331 329 330 330 329 330 330 330 331 331 328
341 339 339 340 339 338 339 339 338 339 338 337 336 335 335 335 335 336 336 335 335 335 334 335 335 334 333 332 332 332 331 331 332 331 329 326 321 314 316 320 319 326 332 332 332 332 331 331 332 332 332 332 331 331 330 329 330 330 330 330 330 330
340 338 338 338 337 337 338 338 337 337 336 337 337 335 334 334 335 335 335 335 334 335 335 334 334 334 332 332 332 332 331 331 331 332 332 330 327 321 318 317 315 323 331 331 332 332 331 331 332 332 332 332 332 331 330 329 330 329 329 329 329 330
339 338 337 337 337 338 338 337 337 337 336 337 336 334 334 334 333 333 334 335 334 334 335 334 334 333 332 332 332 332 331 331 331 331 332 330 330 327 323 317 316 323 329 331 333 332 331 332 333 333 332 332 332 330 330 331 330 329 330 330 329 329
338 338 337 337 337 337 337 336 336 336 336 335 334 332 332 332 331 330 332 334 335 334 334 334 334 333 332 333 332 332 330 330 331 331 331 329 329 330 328 323 321 325 329 331 334 333 332 332 333 333 332 331 332 330 330 331 330 330 330 330 328 329
337 337 337 337 337 336 337 337 335 335 336 334 331 330 330 329 329 330 331 332 333 333 333 334 334 333 332 332 332 331 330 330 331 330 330 328 329 330 330 328 326 326 330 333 334 334 333 332 333 334 332 331 332 330 331 331 331 330 330 330 329 329
337 337 338 338 337 335 335 336 334 334 336 335 331 330 329 329 329 330 331 331 331 332 332 333 334 332 331 332 331 331 330 331 331 330 330 329 329 331 331 330 329 327 329 333 333 334 334 332 332 333 331 332 331 331 332 332 331 331 331 331 330 330
337 337 338 338 337 335 334 334 333 333 334 333 331 329 329 329 330 329 330 330 330 331 332 332 332 331 331 332 332 332 331 331 331 331 331 330 330 332 332 331 331 329 330 333 332 334 334 330 330 331 331 332 331 331 333 332 331 330 331 332 331 331
337 337 337 337 336 335 334 334 334 334 333 332 331 330 329 330 330 329 330 330 329 330 330 330 331 331 331 332 332 332 332 331 331 332 333 331 330 333 334 332 331 332 332 332 332 334 334 331 330 331 332 333 331 331 333 332 331 331 332 332 331 330
338 337 337 336 336 336 336 336 336 335 334 334 333 331 330 331 330 330 330 330 329 329 329 330 330 331 331 332 333 332 331 331 332 332 332 330 330 333 335 333 332 333 333 332 332 333 334 332 331 332 333 333 332 332 333 332 331 331 331 331 331 330
337 336 336 335 335 336 336 336 336 335 335 335 333 332 331 331 331 331 330 329 329 330 330 330 330 331 331 332 333 332 331 332 331 330 331 330 330 332 334 332 330 330 332 331 332 333 333 333 332 333 333 333 331 331 332 331 331 331 331 331 331 330
337 336 336 335 335 335 335 335 335 335 334 334 334 333 332 332 331 331 331 329 330 331 330 330 330 331 332 332 331 331 332 333 332 330 331 331 330 330 331 330 328 328 330 331 332 332 332 331 331 331 332 331 331 331 331 331 330 331 331 331 331 330
337 336 334 334 333 334 335 335 335 334 334 334 334 333 332 332 332 332 331 330 330 330 329 329 330 331 332 332 330 331 332 332 332 331 331 331 330 329 329 329 327 327 329 331 333 332 331 331 331 330 330 330 330 331 330 330 330 330 330 330 330 330
336 335 333 333 334 334 334 335 334 333 334 334 334 334 333 333 333 332 330 329 330 329 329 328 328 330 331 332 331 331 331 331 332 331 330 330 330 329 329 329 328 328 329 330 332 331 330 331 330 330 330 329 329 330 329 329 330 329 328 329 329 329
336 335 333 333 336 336 334 335 335 333 333 333 334 334 334 333 333 332 328 327 328 328 328 327 327 327 328 331 332 331 331 330 331 331 330 329 330 329 329 329 329 329 329 330 331 330 330 330 330 331 329 328 329 329 329 329 330 329 329 329 329 329
335 335 334 333 334 334 333 334 334 334 334 334 334 334 333 333 333 331 328 328 329 327 327 327 327 326 327 331 331 331 331 329 329 330 330 330 330 330 329 329 330 329 328 329 330 330 331 331 330 330 327 328 329 328 329 330 329 329 329 329 329 328
335 335 334 334 333 332 332 334 334 334 334 334 335 334 334 333 333 332 330 331 331 330 329 328 328 327 329 331 331 331 331 330 329 330 330 330 331 331 330 329 330 329 328 329 331 331 332 331 329 330 329 329 330 328 329 330 329 329 329 329 329 327
335 335 334 334 333 332 332 333 333 334 334 334 335 335 335 334 334 333 332 331 331 331 331 331 329 329 329 331 331 331 331 331 331 331 331 331 331 330 328 328 328 328 328 330 332 332 332 331 330 331 331 331 330 329 329 330 329 329 330 329 329 328
334 335 334 333 332 331 331 331 332 334 334 334 334 334 335 335 334 333 332 330 329 330 332 332 331 331 330 331 332 332 332 332 331 331 332 331 331 330 328 327 327 327 330 332 331 331 331 331 330 330 331 331 330 330 329 330 329 330 330 329 329 329
334 335 335 334 333 332 332 332 333 333 334 334 334 333 334 333 333 332 331 330 329 330 332 333 333 332 332 332 332 332 332 331 331 331 332 331 331 330 329 328 327 327 330 331 331 331 330 332 331 331 331 331 330 330 329 329 330 330 330 329 329 329
334 334 334 334 334 333 333 333 334 333 333 334 333 333 333 333 333 333 332 332 332 331 331 332 333 333 333 332 332 332 332 331 332 331 331 331 331 331 329 329 327 327 329 330 331 331 329 331 332 329 330 330 329 328 329 329 329 329 329 329 329 329
333 334 333 334 334 334 334 334 333 333 334 333 333 332 333 333 334 334 334 333 334 332 331 332 333 333 332 332 332 332 331 331 332 332 331 331 330 329 329 328 328 328 328 329 331 331 329 330 330 328 329 330 329 328 328 328 329 329 329 329 329 329
334 334 333 333 334 333 333 333 333 334 334 333 333 332 333 333 333 333 334 333 332 331 331 332 332 333 332 331 332 332 331 331 332 332 331 330 329 328 329 328 328 328 329 329 330 330 329 329 329 330 331 331 329 328 327 328 328 329 330 330 329 329
332 333 333 333 333 333 333 333 333 333 333 332 333 333 333 333 332 333 333 332 330 329 329 330 330 331 330 330 331 331 331 331 331 331 331 330 329 327 328 328 328 327 328 328 329 329 329 329 329 330 330 329 329 328 328 328 329 329 330 330 329 329
330 331 331 331 332 332 332 332 331 331 331 331 332 332 332 332 332 332 331 331 330 329 327 328 328 329 329 330 330 330 331 331 331 331 331 330 329 327 327 327 327 327 327 328 329 329 329 330 330 329 329 329 330 329 328 329 329 329 330 329 329 329
328 329 329 330 330 331 330 329 328 329 330 330 330 330 331 331 331 331 330 329 328 327 326 326 327 329 329 329 330 331 331 331 331 331 330 329 329 329 328 327 327 328 327 327 329 329 329 331 330 329 329 329 329 329 329 329 329 329 329 329 329 329
328 328 329 329 330 330 329 328 327 328 329 329 329 329 329 330 331 331 329 326 325 326 326 326 326 328 329 329 329 331 331 331 331 331 330 329 329 330 329 328 329 330 328 329 330 329 330 332 330 329 329 329 329 329 330 330 330 329 329 329 329 329